• In United Kingdom
  • List of Countries
  • For 7 days
  • Water Temperature
  • Satellite Maps
  • Weather Map
  • Weather Widgets
  • user-avatar
    Login

    Hourly Weather Sankt Polten

    Today, 26 June, Monday

    Time Temperature Precipitation Wind Pressure Humidity
    00:00 +17°C° 0 mm 2 mps 735 mmHg 93%
    01:00 +17°C° 0 mm 3 mps 735 mmHg 93%
    02:00 +17°C° 0.1 mm 3 mps 735 mmHg 93%
    03:00 +16°C° 0.1 mm 2 mps 735 mmHg 93%
    04:00 +16°C° 0.1 mm 2 mps 735 mmHg 93%
    05:00 +18°C° 0 mm 2 mps 735 mmHg 89%
    06:00 +19°C° 0 mm 2 mps 735 mmHg 85%
    07:00 +21°C° 0 mm 2 mps 735 mmHg 80%
    08:00 +22°C° 0.1 mm 3 mps 735 mmHg 72%
    09:00 +25°C° 0.1 mm 4 mps 735 mmHg 65%
    10:00 +26°C° 0.1 mm 4 mps 735 mmHg 57%
    11:00 +27°C° 0.1 mm 4 mps 735 mmHg 55%
    12:00 +28°C° 0.1 mm 4 mps 734 mmHg 53%
    13:00 +29°C° 0.1 mm 3 mps 734 mmHg 51%
    14:00 +29°C° 0 mm 3 mps 734 mmHg 51%
    15:00 +29°C° 0 mm 3 mps 734 mmHg 51%
    16:00 +29°C° 0 mm 2 mps 734 mmHg 52%
    17:00 +28°C° 0.1 mm 2 mps 733 mmHg 62%
    18:00 +26°C° 0.1 mm 1 mps 733 mmHg 72%
    19:00 +23°C° 0.1 mm 0 mps 733 mmHg 82%
    20:00 +23°C° 0 mm 1 mps 733 mmHg 85%
    21:00 +20°C° 0 mm 1 mps 733 mmHg 88%
    22:00 +18°C° 0 mm 1 mps 733 mmHg 92%
    23:00 +18°C° 0 mm 1 mps 733 mmHg 92%

    Tomorrow, 27 June, Tuesday

    Time Temperature Precipitation Wind Pressure Humidity
    00:00 +18°C° 0 mm 1 mps 733 mmHg 92%
    01:00 +18°C° 0 mm 1 mps 733 mmHg 93%
    02:00 +18°C° 0 mm 1 mps 733 mmHg 93%
    03:00 +18°C° 0 mm 1 mps 733 mmHg 94%
    04:00 +18°C° 0 mm 1 mps 732 mmHg 95%
    05:00 +19°C° 0 mm 1 mps 732 mmHg 89%
    06:00 +21°C° 0 mm 1 mps 733 mmHg 84%
    07:00 +23°C° 0 mm 1 mps 733 mmHg 79%
    08:00 +25°C° 0 mm 2 mps 733 mmHg 72%
    09:00 +27°C° 0 mm 2 mps 733 mmHg 64%
    10:00 +28°C° 0 mm 2 mps 733 mmHg 57%
    11:00 +29°C° 0.2 mm 2 mps 732 mmHg 53%
    12:00 +30°C° 0.2 mm 2 mps 732 mmHg 49%
    13:00 +31°C° 0.2 mm 2 mps 732 mmHg 45%
    14:00 +31°C° 0.5 mm 2 mps 731 mmHg 48%
    15:00 +31°C° 0.5 mm 2 mps 731 mmHg 52%
    16:00 +30°C° 0.5 mm 2 mps 730 mmHg 56%
    17:00 +29°C° 0.4 mm 1 mps 730 mmHg 64%
    18:00 +28°C° 0.4 mm 1 mps 730 mmHg 72%
    19:00 +26°C° 0.4 mm 1 mps 730 mmHg 81%
    20:00 +24°C° 0 mm 1 mps 730 mmHg 83%
    21:00 +22°C° 0 mm 1 mps 730 mmHg 86%
    22:00 +20°C° 0 mm 1 mps 730 mmHg 88%
    23:00 +20°C° 0 mm 1 mps 729 mmHg 89%

    Day after tomorrow, 28 June, Wednesday

    Time Temperature Precipitation Wind Pressure Humidity
    00:00 +20°C° 0 mm 1 mps 729 mmHg 89%
    01:00 +19°C° 0 mm 1 mps 729 mmHg 89%
    02:00 +19°C° 0 mm 1 mps 729 mmHg 89%
    03:00 +19°C° 0 mm 1 mps 728 mmHg 90%
    04:00 +18°C° 0 mm 1 mps 728 mmHg 90%
    05:00 +20°C° 0 mm 1 mps 728 mmHg 85%
    06:00 +22°C° 0 mm 1 mps 728 mmHg 80%
    07:00 +24°C° 0 mm 2 mps 728 mmHg 75%
    08:00 +26°C° 0 mm 2 mps 727 mmHg 67%
    09:00 +28°C° 0 mm 3 mps 727 mmHg 59%
    10:00 +30°C° 0 mm 3 mps 727 mmHg 51%
    11:00 +31°C° 0 mm 3 mps 726 mmHg 48%
    12:00 +33°C° 0 mm 4 mps 726 mmHg 44%
    13:00 +34°C° 0 mm 4 mps 725 mmHg 41%
    14:00 +34°C° 0.1 mm 4 mps 725 mmHg 41%
    15:00 +34°C° 0.1 mm 4 mps 725 mmHg 42%
    16:00 +34°C° 0.1 mm 4 mps 724 mmHg 42%
    17:00 +31°C° 0.2 mm 3 mps 724 mmHg 53%
    18:00 +29°C° 0.2 mm 3 mps 724 mmHg 64%
    19:00 +27°C° 0.2 mm 2 mps 723 mmHg 75%
    20:00 +25°C° 1.1 mm 2 mps 723 mmHg 80%
    21:00 +24°C° 1.1 mm 2 mps 723 mmHg 85%
    22:00 +21°C° 1.1 mm 2 mps 723 mmHg 89%
    23:00 +21°C° 0.3 mm 2 mps 723 mmHg 90%

    29 June, Thursday

    Time Temperature Precipitation Wind Pressure Humidity
    00:00 +21°C° 0.3 mm 2 mps 722 mmHg 92%
    01:00 +20°C° 0.3 mm 3 mps 721 mmHg 93%
    02:00 +19°C° 0 mm 3 mps 721 mmHg 93%
    03:00 +19°C° 0 mm 2 mps 720 mmHg 92%
    04:00 +18°C° 0 mm 2 mps 720 mmHg 92%
    05:00 +19°C° 0 mm 3 mps 720 mmHg 88%
    06:00 +21°C° 0 mm 3 mps 720 mmHg 84%
    07:00 +22°C° 0 mm 3 mps 720 mmHg 81%
    08:00 +22°C° 0.4 mm 4 mps 721 mmHg 77%
    09:00 +22°C° 0.4 mm 6 mps 721 mmHg 74%
    10:00 +22°C° 0.4 mm 7 mps 722 mmHg 71%
    11:00 +22°C° 0.4 mm 6 mps 722 mmHg 71%
    12:00 +21°C° 0.4 mm 6 mps 723 mmHg 72%
    13:00 +21°C° 0.4 mm 6 mps 723 mmHg 72%
    14:00 +21°C° 0.3 mm 5 mps 724 mmHg 75%
    15:00 +20°C° 0.3 mm 4 mps 724 mmHg 78%
    16:00 +20°C° 0.3 mm 4 mps 725 mmHg 81%
    17:00 +20°C° 0.1 mm 4 mps 725 mmHg 80%
    18:00 +20°C° 0.1 mm 3 mps 726 mmHg 80%
    19:00 +19°C° 0.1 mm 3 mps 726 mmHg 80%
    20:00 +19°C° 0.1 mm 3 mps 727 mmHg 82%
    21:00 +18°C° 0.1 mm 3 mps 727 mmHg 85%
    22:00 +17°C° 0.1 mm 3 mps 728 mmHg 87%
    23:00 +17°C° 0 mm 3 mps 728 mmHg 85%

    30 June, Friday

    Time Temperature Precipitation Wind Pressure Humidity
    00:00 +17°C° 0 mm 3 mps 729 mmHg 84%
    01:00 +16°C° 0 mm 3 mps 729 mmHg 82%
    02:00 +16°C° 0 mm 2 mps 729 mmHg 82%
    03:00 +16°C° 0 mm 2 mps 729 mmHg 82%
    04:00 +16°C° 0 mm 2 mps 729 mmHg 82%
    05:00 +16°C° 0 mm 2 mps 730 mmHg 82%
    06:00 +16°C° 0 mm 2 mps 730 mmHg 81%
    07:00 +16°C° 0 mm 2 mps 731 mmHg 81%
    08:00 +17°C° 0.1 mm 2 mps 731 mmHg 78%
    09:00 +17°C° 0.1 mm 2 mps 731 mmHg 75%
    10:00 +18°C° 0.1 mm 2 mps 731 mmHg 72%
    11:00 +20°C° 0.1 mm 2 mps 731 mmHg 65%
    12:00 +23°C° 0.1 mm 2 mps 731 mmHg 58%
    13:00 +25°C° 0.1 mm 2 mps 732 mmHg 51%
    14:00 +25°C° 0.2 mm 1 mps 731 mmHg 51%
    15:00 +25°C° 0.2 mm 1 mps 731 mmHg 51%
    16:00 +25°C° 0.2 mm 1 mps 731 mmHg 51%
    17:00 +24°C° 0.1 mm 1 mps 731 mmHg 59%
    18:00 +23°C° 0.1 mm 1 mps 731 mmHg 67%
    19:00 +21°C° 0.1 mm 1 mps 731 mmHg 74%
    20:00 +19°C° 0.4 mm 1 mps 731 mmHg 79%
    21:00 +16°C° 0.4 mm 1 mps 732 mmHg 84%
    22:00 +14°C° 0.4 mm 1 mps 732 mmHg 89%
    23:00 +14°C° 0.1 mm 1 mps 732 mmHg 90%

    1 July, Saturday

    Time Temperature Precipitation Wind Pressure Humidity
    00:00 +13°C° 0.1 mm 1 mps 732 mmHg 90%
    01:00 +13°C° 0.1 mm 1 mps 732 mmHg 91%
    02:00 +13°C° 0 mm 1 mps 732 mmHg 90%
    03:00 +13°C° 0 mm 1 mps 732 mmHg 90%
    04:00 +13°C° 0 mm 1 mps 732 mmHg 90%
    05:00 +15°C° 0 mm 1 mps 732 mmHg 85%
    06:00 +18°C° 0 mm 1 mps 732 mmHg 80%
    07:00 +17°C° 0 mm 0 mps 733 mmHg 75%
    08:00 +21°C° 0 mm 1 mps 733 mmHg 68%
    09:00 +22°C° 0 mm 1 mps 733 mmHg 61%
    10:00 +24°C° 0 mm 1 mps 732 mmHg 54%
    11:00 +24°C° 0.3 mm 1 mps 732 mmHg 54%
    12:00 +25°C° 0.3 mm 1 mps 732 mmHg 54%
    13:00 +25°C° 0.3 mm 1 mps 732 mmHg 54%
    14:00 +25°C° 0.4 mm 1 mps 732 mmHg 55%
    15:00 +25°C° 0.4 mm 1 mps 732 mmHg 55%
    16:00 +25°C° 0.4 mm 1 mps 731 mmHg 56%
    17:00 +24°C° 0.4 mm 1 mps 732 mmHg 64%
    18:00 +23°C° 0.4 mm 1 mps 732 mmHg 71%
    19:00 +21°C° 0.4 mm 1 mps 732 mmHg 79%
    20:00 +20°C° 0.2 mm 1 mps 733 mmHg 81%
    21:00 +18°C° 0.2 mm 1 mps 733 mmHg 83%
    22:00 +16°C° 0.2 mm 2 mps 733 mmHg 84%
    23:00 +15°C° 0 mm 2 mps 734 mmHg 86%
    Show more